Weather History for KHSP - April, 2013

Change the Weather History Date:

Friday, April 12, 2013

  Actual Average Record
Temperature  
Mean Temperature 52 °F -  
Max Temperature 62 °F 54 °F 75 °F (2001)
Min Temperature 42 °F 37 °F 24 °F (2009)
Degree Days  
Heating Degree Days 13    
Growing Degree Days 2 (Base 50)    
Moisture  
Dew Point 47 °F    
Average Humidity 76    
Maximum Humidity 100    
Minimum Humidity 42    
Precipitation  
Precipitation 1.21 in - - ()
Sea Level Pressure  
Sea Level Pressure 29.78 in    
Wind  
Wind Speed 15 mph (WSW)    
Max Wind Speed 34 mph    
Max Gust Speed 44 mph    
Visibility 8 miles    
Events Rain , Thunderstorm    
Averages and records for this station are not official NWS values.
T = Trace of Precipitation, MM = Missing Value Source: NWS Daily Summary

Daily Weather History Graph

Daily Weather History Graph

Search for Another Location

Airport or City:

Trip Planner

Search our weather history database for the weather conditions in past years. The results will help you decide how hot, cold, wet, or windy it might be!

Date:

Astronomy

Apr. 12, 2013 Rise Set
Actual Time 6:47 AM EDT 7:52 PM EDT
Civil Twilight 6:20 AM EDT 8:19 PM EDT
Nautical Twilight 5:48 AM EDT 8:52 PM EDT
Astronomical Twilight 5:15 AM EDT 9:25 PM EDT
Moon 7:58 AM EDT (4/12) 10:19 PM EDT (4/12)
Length of Visible Light 13h 58m
Length of Day
13h 04m
Waxing Crescent, 5% of the Moon is Illuminated
Apr 12
Waxing Crescent
Apr 18
First Quarter
Apr 25
Full
May 2
Last Quarter
May 9
New

Hourly Weather History & Observations

Time (EDT) Temp. Windchill Dew Point Humidity Pressure Visibility Wind Dir Wind Speed Gust Speed Precip Events Conditions
12:15 AM 60.8 °F - 55.4 °F 82% 29.85 in 10.0 mi South 12.7 mph 19.6 mph N/A   Overcast
12:35 AM 60.8 °F - 55.4 °F 82% 29.84 in 10.0 mi South 12.7 mph 19.6 mph N/A   Overcast
12:55 AM 60.8 °F - 55.4 °F 82% 29.83 in 10.0 mi SSE 11.5 mph 20.7 mph N/A   Overcast
1:55 AM 57.2 °F - 57.2 °F 100% 29.80 in 0.2 mi South 16.1 mph 24.2 mph N/A Rain , Thunderstorm Light Thunderstorms and Rain
2:15 AM 57.2 °F - 57.2 °F 100% 29.79 in 0.2 mi South 9.2 mph 21.9 mph N/A Rain , Thunderstorm Light Thunderstorms and Rain
2:35 AM 59.0 °F - 57.2 °F 94% 29.77 in 0.2 mi SSE 6.9 mph - N/A Thunderstorm Drizzle
2:55 AM 57.2 °F - 57.2 °F 100% 29.76 in 0.2 mi South 9.2 mph 20.7 mph N/A   Heavy Drizzle
3:15 AM 57.2 °F - 57.2 °F 100% 29.74 in 0.2 mi SSE 10.4 mph 17.3 mph 0.04 in Rain , Thunderstorm Light Thunderstorms and Rain
3:35 AM 57.2 °F - 57.2 °F 100% 29.74 in 0.2 mi South 11.5 mph 24.2 mph 0.08 in Rain , Thunderstorm Rain
3:55 AM 55.4 °F - 55.4 °F 100% 29.73 in 1.2 mi West 34.5 mph 43.7 mph 0.44 in Rain , Thunderstorm Heavy Thunderstorms and Rain
4:15 AM 53.6 °F - 53.6 °F 100% 29.74 in 3.0 mi West 26.5 mph 36.8 mph 0.54 in Rain , Thunderstorm Light Thunderstorms and Rain
4:35 AM 53.6 °F - 53.6 °F 100% 29.76 in 1.5 mi West 21.9 mph - 0.55 in Rain , Thunderstorm Light Thunderstorms and Rain
5:15 AM 53.6 °F - 53.6 °F 100% 29.75 in 1.0 mi WSW 16.1 mph 20.7 mph 0.04 in Rain Light Rain
5:18 AM 53.6 °F - 53.6 °F 100% 29.75 in 0.8 mi West 13.8 mph 20.7 mph 0.04 in Rain Light Rain
5:35 AM 53.6 °F - 53.6 °F 100% 29.74 in 2.5 mi WSW 10.4 mph - 0.11 in Rain Light Rain
5:55 AM 53.6 °F - 53.6 °F 100% 29.74 in 10.0 mi WSW 6.9 mph - 0.03 in Rain Light Rain
6:35 AM 53.6 °F - 53.6 °F 100% 29.72 in 10.0 mi SW 10.4 mph 17.3 mph 0.03 in   Overcast
6:55 AM 53.6 °F - 53.6 °F 100% 29.73 in 10.0 mi SSW 10.4 mph 18.4 mph N/A   Mostly Cloudy
7:15 AM 53.6 °F - 51.8 °F 94% 29.73 in 10.0 mi SSW 8.1 mph - N/A   Scattered Clouds
7:35 AM 53.6 °F - 53.6 °F 100% 29.73 in 10.0 mi South 11.5 mph 20.7 mph N/A   Scattered Clouds
7:55 AM 53.6 °F - 53.6 °F 100% 29.74 in 7.0 mi SSW 12.7 mph 18.4 mph N/A   Overcast
8:56 AM 55.4 °F - 55.4 °F 100% 29.74 in 10.0 mi SW 10.4 mph 17.3 mph N/A   Overcast
9:15 AM 57.2 °F - 55.4 °F 94% 29.75 in 10.0 mi WSW 15.0 mph 18.4 mph N/A   Overcast
9:35 AM 55.4 °F - 55.4 °F 100% 29.75 in 10.0 mi SW 11.5 mph 18.4 mph N/A   Overcast
9:55 AM 57.2 °F - 55.4 °F 94% 29.76 in 10.0 mi West 13.8 mph - N/A   Overcast
10:15 AM 55.4 °F - 55.4 °F 100% 29.76 in 7.0 mi WSW 15.0 mph - N/A Rain Light Rain
10:55 AM 57.2 °F - 55.4 °F 94% 29.76 in 10.0 mi WSW 17.3 mph 23.0 mph N/A   Overcast
11:15 AM 55.4 °F - 55.4 °F 100% 29.77 in 7.0 mi West 16.1 mph 23.0 mph N/A   Overcast
11:35 AM 55.4 °F - 53.6 °F 94% 29.77 in 4.0 mi West 18.4 mph 23.0 mph 0.08 in Rain Rain
11:55 AM 55.4 °F - 55.4 °F 100% 29.77 in 5.0 mi West 19.6 mph 28.8 mph N/A   Overcast
12:15 PM 57.2 °F - 55.4 °F 94% 29.77 in 10.0 mi West 18.4 mph 27.6 mph N/A   Overcast
12:35 PM 57.2 °F - 53.6 °F 88% 29.77 in 10.0 mi West 18.4 mph 25.3 mph N/A   Overcast
12:55 PM 57.2 °F - 51.8 °F 82% 29.78 in 10.0 mi WSW 20.7 mph 27.6 mph N/A   Overcast
1:15 PM 57.2 °F - 51.8 °F 82% 29.77 in 10.0 mi West 18.4 mph 24.2 mph N/A   Overcast
1:35 PM 57.2 °F - 50.0 °F 77% 29.77 in 10.0 mi WSW 16.1 mph 26.5 mph N/A   Overcast
1:55 PM 60.8 °F - 50.0 °F 68% 29.76 in 10.0 mi WSW 20.7 mph 29.9 mph N/A   Mostly Cloudy
2:15 PM 60.8 °F - 48.2 °F 63% 29.76 in 10.0 mi WSW 19.6 mph 26.5 mph N/A   Scattered Clouds
2:35 PM 60.8 °F - 48.2 °F 63% 29.76 in 10.0 mi WSW 21.9 mph 29.9 mph N/A   Scattered Clouds
2:55 PM 60.8 °F - 46.4 °F 59% 29.76 in 10.0 mi West 21.9 mph 34.5 mph N/A   Scattered Clouds
3:15 PM 62.6 °F - 44.6 °F 52% 29.76 in 10.0 mi West 18.4 mph 31.1 mph N/A   Clear
3:35 PM 60.8 °F - 42.8 °F 52% 29.75 in 10.0 mi WSW 20.7 mph 32.2 mph N/A   Clear
3:55 PM 60.8 °F - 41.0 °F 48% 29.75 in 10.0 mi West 21.9 mph 27.6 mph N/A   Scattered Clouds
4:15 PM 60.8 °F - 41.0 °F 48% 29.75 in 10.0 mi West 18.4 mph 32.2 mph N/A   Scattered Clouds
4:35 PM 60.8 °F - 41.0 °F 48% 29.75 in 10.0 mi WSW 24.2 mph 35.7 mph N/A   Clear
4:55 PM 60.8 °F - 39.2 °F 45% 29.76 in 10.0 mi WSW 23.0 mph 29.9 mph N/A   Clear
5:15 PM 60.8 °F - 41.0 °F 48% 29.75 in 10.0 mi West 18.4 mph 28.8 mph N/A   Clear
5:35 PM 60.8 °F - 39.2 °F 45% 29.76 in 10.0 mi West 17.3 mph 24.2 mph N/A   Clear
5:55 PM 60.8 °F - 37.4 °F 42% 29.76 in 10.0 mi West 13.8 mph 24.2 mph N/A   Clear
6:15 PM 57.2 °F - 35.6 °F 44% 29.76 in 10.0 mi West 18.4 mph 32.2 mph N/A   Clear
6:35 PM 57.2 °F - 35.6 °F 44% 29.77 in 10.0 mi West 17.3 mph 28.8 mph N/A   Clear
6:55 PM 57.2 °F - 37.4 °F 48% 29.77 in 10.0 mi West 17.3 mph 23.0 mph N/A   Clear
7:15 PM 55.4 °F - 37.4 °F 51% 29.78 in 10.0 mi West 23.0 mph 29.9 mph N/A   Clear
7:35 PM 53.6 °F - 35.6 °F 51% 29.78 in 10.0 mi West 19.6 mph 26.5 mph N/A   Clear
7:55 PM 51.8 °F - 35.6 °F 54% 29.79 in 10.0 mi West 18.4 mph 23.0 mph N/A   Clear
8:15 PM 51.8 °F - 35.6 °F 54% 29.80 in 10.0 mi West 17.3 mph 23.0 mph N/A   Clear
8:35 PM 51.8 °F - 35.6 °F 54% 29.80 in 10.0 mi West 12.7 mph 19.6 mph N/A   Clear
8:55 PM 50.0 °F - 33.8 °F 54% 29.80 in 10.0 mi West 15.0 mph 23.0 mph N/A   Clear
9:15 PM 50.0 °F - 35.6 °F 58% 29.81 in 10.0 mi WNW 15.0 mph 20.7 mph N/A   Clear
9:35 PM 48.2 °F - 35.6 °F 62% 29.83 in 10.0 mi West 17.3 mph 26.5 mph N/A   Clear
9:55 PM 48.2 °F - 35.6 °F 62% 29.83 in 10.0 mi WNW 12.7 mph 24.2 mph N/A   Clear
10:15 PM 48.2 °F - 35.6 °F 62% 29.84 in 10.0 mi WNW 13.8 mph 23.0 mph N/A   Clear
10:35 PM 46.4 °F 40.1 °F 33.8 °F 62% 29.85 in 10.0 mi WNW 15.0 mph 27.6 mph N/A   Scattered Clouds
10:55 PM 46.4 °F 39.2 °F 33.8 °F 62% 29.85 in 10.0 mi WNW 18.4 mph 27.6 mph N/A   Clear
11:15 PM 44.6 °F 37.8 °F 32.0 °F 61% 29.86 in 10.0 mi NW 15.0 mph 26.5 mph N/A   Clear
11:35 PM 42.8 °F 35.4 °F 32.0 °F 66% 29.87 in 10.0 mi WNW 15.0 mph 24.2 mph N/A   Clear
11:55 PM 42.8 °F 35.4 °F 32.0 °F 66% 29.87 in 10.0 mi WNW 15.0 mph 26.5 mph N/A   Clear